Showing default

GONETS M 18, 46487

Orbit data source: Space-Track

GONETS M 18, 46487 is a payload satellite owned by Gonets (CIS) in LEO that was launched on Mon, 28 Sep 2020 UTC via a SOYUZ-2-1B launch vehicle from the Plesetsk Missile And Space Complex (PKMTR). Payload-class satellites include a variety of spacecraft equipped with specific instruments for various scientific and technological missions. These include communications satellites like Starlink; space stations such as the ISS; scientific satellites like the Hubble; Earth observation satellites from companies like Planet Labs, Umbra, and HawkEye 360; GPS; miniature CubeSats for education and research; and military/defense satellites.

Loading next visibility...
Identifier
46487, 2020-068B
Orbit
LEO
Country
Flag of CISCIS
Related business
Manufacturer
Resehetnev ISS
Mission
Operational Commercial Communications
Bus & Motor
STRELA-3M, Unknown motor
Mass
225 kg wet, 225 kg dry
Launch date (UTC)
2020-09-28 (5 years ago)
Launch vehicle
SOYUZ-2-1B
Launch site
Plesetsk Missile And Space Complex (PKMTR)
Object type
Payload
Rocket body
Debris
Shape & HBR
Cyl + 1 Ant, 3.5 m
Radar Cross Section
1.798 m², Large (>1 m²)

Expand to show TLE details & history
Last TLE update: 10 hours ago

TLE from 10 hours ago
0 GONETS M 18
1 46487U 20068B   25288.62198631  .00000034  00000-0  17752-3 0  9998
2 46487  82.4910 138.8703 0019490 204.6704 155.3445 12.42888834228761
Epoch: 2025-10-15T14:55Z
TLE epoch observation values (Epoch: 2025-10-15T14:55:39.617Z)
Latitude
-0.00002°
Longitude
-109.4382°
Altitude
1,511.033 km
Speed
7.103 km/s
True Right ascension
09h 15m 28s
True Declination
0° 00' 00"
Sunlit
Object was in daylight at epoch
Visualization orbit readout
Latitude
Unknown
Longitude
Unknown
Altitude
Unknown
Speed
Unknown
Apparent Right ascension
Unknown
Apparent Declination
Unknown
Sunlit
N/A
Visualization observer readout
Local Sidereal Time
19:11:18
Azimuth
Unknown
Elevation
Unknown
Doppler factor
Unknown
Orbital elements
Apogee altitude
1,507.071 km
Perigee altitude
1,476.394 km
Semi-major axis
7,869.869 km
Eccentricity
0.00195
Inclination
82.491°
RAAN
138.8703°
Arg. of periapsis
204.6704°
True anomaly
155.43746°
Mean anomaly
155.3445°
Eccentric anomaly
155.391°
Mean motion
3.10879 °/min
Orbital period
115.8 mins
BSTAR
0.00017752
Loading maneuver chart data...
Computing Atmospheric mass density...
Loading historical data...
Loading historical data...
Loading historical data...
Loading historical data...
Loading historical data...
Loading historical data...
Loading historical data...

Documentation

Showing up to 5 results
|